TimeEDT,TemperatureF,Dew PointF,Humidity,Sea Level PressureIn,VisibilityMPH,Wind Direction,Wind SpeedMPH,Gust SpeedMPH,PrecipitationIn,Events,Conditions,WindDirDegrees,DateUTC
12:53 AM,75.0,72.0,90,30.11,10.0,Calm,Calm,-,N/A,,Mostly Cloudy,0,2013-07-19 04:53:00
1:53 AM,75.0,73.0,94,30.10,10.0,Calm,Calm,-,N/A,,Mostly Cloudy,0,2013-07-19 05:53:00
2:53 AM,75.0,72.0,90,30.10,10.0,Calm,Calm,-,N/A,,Mostly Cloudy,0,2013-07-19 06:53:00
3:00 AM,75.2,71.6,89,30.10,10.0,Calm,Calm,-,N/A,,Mostly Cloudy,0,2013-07-19 07:00:00
3:53 AM,75.0,72.0,90,30.09,10.0,Calm,Calm,-,N/A,,Mostly Cloudy,0,2013-07-19 07:53:00
4:53 AM,73.9,72.0,93,30.09,10.0,ESE,3.5,-,N/A,,Mostly Cloudy,110,2013-07-19 08:53:00
5:00 AM,73.4,71.6,94,30.09,10.0,Variable,3.5,-,N/A,,Mostly Cloudy,0,2013-07-19 09:00:00
5:53 AM,73.9,71.1,91,30.09,10.0,Calm,Calm,-,N/A,,Overcast,0,2013-07-19 09:53:00
6:53 AM,73.9,71.1,91,30.10,10.0,Variable,3.5,-,N/A,,Scattered Clouds,0,2013-07-19 10:53:00
7:53 AM,75.0,71.1,87,30.12,10.0,ESE,5.8,-,N/A,,Mostly Cloudy,110,2013-07-19 11:53:00
8:53 AM,78.1,70.0,76,30.14,10.0,ESE,3.5,-,N/A,,Overcast,120,2013-07-19 12:53:00
9:53 AM,80.1,70.0,71,30.14,10.0,Variable,3.5,-,N/A,,Overcast,0,2013-07-19 13:53:00
10:53 AM,82.0,73.0,74,30.14,10.0,SE,6.9,-,N/A,,Overcast,140,2013-07-19 14:53:00
11:53 AM,84.0,73.9,72,30.13,10.0,SSE,9.2,-,N/A,,Overcast,150,2013-07-19 15:53:00
12:53 PM,84.9,73.9,69,30.11,10.0,South,6.9,-,N/A,,Overcast,180,2013-07-19 16:53:00
1:53 PM,84.9,75.9,74,30.10,10.0,SSW,8.1,-,N/A,,Overcast,200,2013-07-19 17:53:00
2:53 PM,84.0,73.0,69,30.08,8.0,South,15.0,21.9,N/A,,Overcast,180,2013-07-19 18:53:00
3:03 PM,80.6,73.4,79,30.09,4.0,SE,8.1,17.3,0.00,Rain-Thunderstorm,Light Thunderstorms and Rain,130,2013-07-19 19:03:00
3:43 PM,77.0,73.4,89,30.08,10.0,NW,6.9,-,0.02,,Overcast,320,2013-07-19 19:43:00
3:53 PM,77.0,73.9,90,30.09,10.0,NNW,8.1,-,0.02,,Overcast,330,2013-07-19 19:53:00
4:53 PM,78.1,75.0,90,30.08,10.0,NNW,4.6,-,0.01,,Overcast,330,2013-07-19 20:53:00
5:36 PM,75.2,73.4,94,30.08,9.0,WNW,11.5,-,0.00,Rain-Thunderstorm,Light Thunderstorms and Rain,290,2013-07-19 21:36:00
5:53 PM,75.9,73.0,91,30.09,9.0,NNW,3.5,-,0.01,Rain-Thunderstorm,Light Thunderstorms and Rain,330,2013-07-19 21:53:00
5:58 PM,75.2,73.4,94,30.08,10.0,North,3.5,-,0.00,,Overcast,350,2013-07-19 21:58:00
6:53 PM,77.0,72.0,84,30.07,10.0,Calm,Calm,-,0.00,,Overcast,0,2013-07-19 22:53:00
7:53 PM,75.9,72.0,87,30.09,10.0,ENE,4.6,-,N/A,,Overcast,70,2013-07-19 23:53:00
8:53 PM,75.9,73.0,91,30.10,10.0,ENE,4.6,-,N/A,,Overcast,70,2013-07-20 00:53:00
9:53 PM,75.9,72.0,87,30.11,10.0,East,3.5,-,N/A,,Overcast,80,2013-07-20 01:53:00
10:53 PM,75.9,72.0,87,30.12,10.0,Calm,Calm,-,N/A,,Mostly Cloudy,0,2013-07-20 02:53:00
11:53 PM,75.9,72.0,87,30.12,10.0,Calm,Calm,-,N/A,,Mostly Cloudy,0,2013-07-20 03:53:00